Location: Muck Cross
(36.7179°N, 78.3678°W)
Time: 09:36:49
(UTC+00:00)

Courier 1B Rocket - Visible Passes

Search period start: 29 March 2023 00:00
Search period end: 08 April 2023 00:00
Orbit: 920 x 1202 km, 28.2° (Epoch: 28 March)

Date Brightness Start Highest point End Pass type
(mag) Time Alt. Az. Time Alt. Az. Time Alt. Az.
29 Mar 5.7 01:47:49 10° WSW 01:53:55 41° S 01:53:55 41° S visible
30 Mar 5.8 00:46:36 10° WSW 00:53:19 41° S 00:56:43 25° SE visible
30 Mar 6.7 02:40:05 10° WSW 02:43:04 24° WSW 02:43:04 24° WSW visible
30 Mar 6.0 23:45:28 10° WSW 23:52:14 39° S 23:58:37 10° ESE visible
31 Mar 5.6 01:38:45 10° WSW 01:45:20 40° S 01:45:50 40° S visible
01 Apr 5.8 00:37:26 10° WSW 00:44:18 43° S 00:48:35 20° ESE visible
01 Apr 6.6 02:31:12 10° WSW 02:34:57 26° SW 02:34:57 26° SW visible
02 Apr 5.8 01:29:44 10° WSW 01:36:18 37° SSW 01:37:40 34° SSE visible
03 Apr 5.9 00:28:20 10° WSW 00:35:15 42° S 00:40:23 16° ESE visible
03 Apr 6.6 02:22:26 10° WSW 02:26:45 24° SW 02:26:45 24° SW visible
04 Apr 6.1 01:20:48 10° WSW 01:27:13 33° SSW 01:29:29 27° SSE visible
05 Apr 6.1 00:19:18 10° WSW 00:26:11 38° SSW 00:32:12 12° SE visible
05 Apr 6.8 02:13:55 10° WSW 02:18:35 20° SSW 02:18:35 20° SSW visible
06 Apr 6.5 01:12:01 10° WSW 01:18:04 27° SSW 01:21:19 19° SSE visible
07 Apr 6.4 00:10:22 10° WSW 00:17:03 34° SSW 00:23:24 10° SE visible
07 Apr 7.0 02:05:52 10° WSW 02:09:45 15° SSW 02:10:28 15° SSW visible
